When you browse on this site, cookies collect data to enhance your experience and personalize the content and advertising you see.
Visit our Privacy Policy to learn more. By continuing to use the site, you agree to this use of cookies and data.
  • Em Portugal
  • Lista de países
  • Para 7 dias
  • Temperatura da água
  • Mapas de satélite
  • Mapa do tempo
  • Widgets de tempo
  • user-avatar
    Iniciar Sessão

    Previsão horária em Boguszyczki

    Hoje, 19 Junho, Quarta-feira

    Tempo Temperatura Precipitação Vento Pressão Humidade
    00:00 +18°C° 0 mm 3 m/s 754 mmHg 85%
    01:00 +18°C° 0 mm 3 m/s 753 mmHg 87%
    02:00 +17°C° 0 mm 3 m/s 753 mmHg 87%
    03:00 +17°C° 0 mm 3 m/s 753 mmHg 88%
    04:00 +17°C° 0 mm 3 m/s 753 mmHg 89%
    05:00 +18°C° 0 mm 3 m/s 752 mmHg 86%
    06:00 +20°C° 0 mm 3 m/s 752 mmHg 82%
    07:00 +22°C° 0 mm 3 m/s 752 mmHg 79%
    08:00 +24°C° 0.1 mm 3 m/s 752 mmHg 73%
    09:00 +25°C° 0.1 mm 3 m/s 752 mmHg 68%
    10:00 +27°C° 0.1 mm 3 m/s 751 mmHg 63%
    11:00 +28°C° 0 mm 2 m/s 751 mmHg 59%
    12:00 +28°C° 0 mm 2 m/s 751 mmHg 56%
    13:00 +29°C° 0 mm 2 m/s 750 mmHg 53%
    14:00 +29°C° 0 mm 2 m/s 750 mmHg 54%
    15:00 +29°C° 0 mm 1 m/s 750 mmHg 55%
    16:00 +29°C° 0 mm 1 m/s 749 mmHg 56%
    17:00 +28°C° 0 mm 1 m/s 749 mmHg 60%
    18:00 +27°C° 0 mm 1 m/s 749 mmHg 64%
    19:00 +26°C° 0 mm 1 m/s 749 mmHg 68%
    20:00 +25°C° 0 mm 1 m/s 749 mmHg 73%
    21:00 +23°C° 0 mm 2 m/s 749 mmHg 78%
    22:00 +21°C° 0 mm 2 m/s 749 mmHg 82%
    23:00 +21°C° 0 mm 2 m/s 749 mmHg 82%

    Amanhã, 20 Junho, Quinta-feira

    Tempo Temperatura Precipitação Vento Pressão Humidade
    00:00 +21°C° 0 mm 1 m/s 749 mmHg 82%
    01:00 +21°C° 0 mm 1 m/s 749 mmHg 82%
    02:00 +21°C° 0 mm 1 m/s 749 mmHg 81%
    03:00 +21°C° 0 mm 1 m/s 749 mmHg 81%
    04:00 +21°C° 0 mm 1 m/s 749 mmHg 80%
    05:00 +22°C° 0 mm 1 m/s 749 mmHg 77%
    06:00 +24°C° 0 mm 2 m/s 749 mmHg 74%
    07:00 +25°C° 0 mm 2 m/s 749 mmHg 72%
    08:00 +26°C° 0 mm 2 m/s 749 mmHg 67%
    09:00 +27°C° 0 mm 2 m/s 749 mmHg 63%
    10:00 +29°C° 0 mm 2 m/s 749 mmHg 58%
    11:00 +30°C° 0 mm 2 m/s 749 mmHg 54%
    12:00 +30°C° 0 mm 2 m/s 749 mmHg 50%
    13:00 +31°C° 0 mm 2 m/s 749 mmHg 46%
    14:00 +31°C° 0 mm 2 m/s 748 mmHg 46%
    15:00 +31°C° 0 mm 2 m/s 748 mmHg 47%
    16:00 +31°C° 0 mm 2 m/s 748 mmHg 48%
    17:00 +30°C° 0 mm 2 m/s 748 mmHg 54%
    18:00 +28°C° 0 mm 2 m/s 749 mmHg 60%
    19:00 +27°C° 0 mm 2 m/s 749 mmHg 66%
    20:00 +25°C° 1.1 mm 2 m/s 749 mmHg 73%
    21:00 +21°C° 1.1 mm 2 m/s 750 mmHg 79%
    22:00 +20°C° 1.1 mm 1 m/s 750 mmHg 86%
    23:00 +19°C° 0.1 mm 2 m/s 750 mmHg 86%

    Depois de amanhã, 21 Junho, Sexta-feira

    Tempo Temperatura Precipitação Vento Pressão Humidade
    00:00 +19°C° 0.1 mm 2 m/s 750 mmHg 87%
    01:00 +18°C° 0.1 mm 3 m/s 750 mmHg 87%
    02:00 +18°C° 0 mm 2 m/s 750 mmHg 88%
    03:00 +18°C° 0 mm 2 m/s 751 mmHg 89%
    04:00 +19°C° 0 mm 1 m/s 751 mmHg 90%
    05:00 +19°C° 0 mm 2 m/s 751 mmHg 88%
    06:00 +20°C° 0 mm 2 m/s 751 mmHg 86%
    07:00 +23°C° 0 mm 2 m/s 752 mmHg 83%
    08:00 +22°C° 0.8 mm 3 m/s 752 mmHg 83%
    09:00 +22°C° 0.8 mm 3 m/s 752 mmHg 82%
    10:00 +22°C° 0.8 mm 4 m/s 752 mmHg 81%
    11:00 +24°C° 0.1 mm 3 m/s 752 mmHg 79%
    12:00 +24°C° 0.1 mm 3 m/s 752 mmHg 77%
    13:00 +24°C° 0.1 mm 3 m/s 752 mmHg 75%
    14:00 +25°C° 0.1 mm 3 m/s 753 mmHg 71%
    15:00 +25°C° 0.1 mm 2 m/s 753 mmHg 68%
    16:00 +26°C° 0.1 mm 2 m/s 753 mmHg 64%
    17:00 +25°C° 0.1 mm 2 m/s 753 mmHg 70%
    18:00 +24°C° 0.1 mm 2 m/s 753 mmHg 75%
    19:00 +23°C° 0.1 mm 2 m/s 753 mmHg 81%
    20:00 +21°C° 0.1 mm 2 m/s 754 mmHg 85%
    21:00 +20°C° 0.1 mm 2 m/s 754 mmHg 88%
    22:00 +19°C° 0.1 mm 2 m/s 755 mmHg 92%
    23:00 +18°C° 0 mm 3 m/s 755 mmHg 91%

    22 Junho, Sábado

    Tempo Temperatura Precipitação Vento Pressão Humidade
    00:00 +17°C° 0 mm 3 m/s 755 mmHg 91%
    01:00 +17°C° 0 mm 4 m/s 755 mmHg 91%
    02:00 +16°C° 0 mm 3 m/s 755 mmHg 91%
    03:00 +14°C° 0 mm 3 m/s 756 mmHg 91%
    04:00 +14°C° 0 mm 3 m/s 756 mmHg 90%
    05:00 +16°C° 0 mm 3 m/s 756 mmHg 87%
    06:00 +17°C° 0 mm 3 m/s 757 mmHg 83%
    07:00 +18°C° 0 mm 4 m/s 757 mmHg 80%
    08:00 +19°C° 0 mm 4 m/s 757 mmHg 74%
    09:00 +20°C° 0 mm 4 m/s 757 mmHg 68%
    10:00 +21°C° 0 mm 4 m/s 757 mmHg 62%
    11:00 +22°C° 0 mm 4 m/s 757 mmHg 61%
    12:00 +23°C° 0 mm 5 m/s 757 mmHg 60%
    13:00 +23°C° 0 mm 5 m/s 757 mmHg 58%
    14:00 +23°C° 0 mm 5 m/s 757 mmHg 61%
    15:00 +23°C° 0 mm 5 m/s 756 mmHg 63%
    16:00 +23°C° 0 mm 6 m/s 756 mmHg 65%
    17:00 +22°C° 0 mm 6 m/s 756 mmHg 69%
    18:00 +21°C° 0 mm 6 m/s 757 mmHg 73%
    19:00 +19°C° 0 mm 6 m/s 757 mmHg 77%
    20:00 +17°C° 0 mm 5 m/s 757 mmHg 77%
    21:00 +16°C° 0 mm 5 m/s 757 mmHg 78%
    22:00 +15°C° 0 mm 5 m/s 757 mmHg 78%
    23:00 +14°C° 0 mm 5 m/s 757 mmHg 79%

    23 Junho, Domingo

    Tempo Temperatura Precipitação Vento Pressão Humidade
    00:00 +13°C° 0 mm 5 m/s 757 mmHg 80%
    01:00 +12°C° 0 mm 5 m/s 757 mmHg 81%
    02:00 +15°C° 0.1 mm 5 m/s 754 mmHg 72%
    03:00 +15°C° 0.1 mm 5 m/s 754 mmHg 73%
    04:00 +14°C° 0.1 mm 5 m/s 754 mmHg 75%
    05:00 +14°C° 0.4 mm 5 m/s 754 mmHg 79%
    06:00 +14°C° 0.4 mm 5 m/s 754 mmHg 83%
    07:00 +14°C° 0.4 mm 5 m/s 754 mmHg 87%
    08:00 +14°C° 1 mm 5 m/s 754 mmHg 88%
    09:00 +15°C° 1 mm 5 m/s 754 mmHg 88%
    10:00 +15°C° 1 mm 5 m/s 754 mmHg 89%
    11:00 +15°C° 4 mm 6 m/s 754 mmHg 90%
    12:00 +15°C° 4 mm 6 m/s 754 mmHg 91%
    13:00 +15°C° 4 mm 6 m/s 754 mmHg 93%
    14:00 +15°C° 2.6 mm 6 m/s 754 mmHg 92%
    15:00 +15°C° 2.6 mm 6 m/s 754 mmHg 92%
    16:00 +15°C° 2.6 mm 6 m/s 754 mmHg 91%
    17:00 +14°C° 1.1 mm 5 m/s 755 mmHg 91%
    18:00 +14°C° 1.1 mm 5 m/s 755 mmHg 91%
    19:00 +14°C° 1.1 mm 4 m/s 755 mmHg 90%
    20:00 +14°C° 0.2 mm 4 m/s 756 mmHg 88%
    21:00 +13°C° 0.2 mm 4 m/s 756 mmHg 86%
    22:00 +13°C° 0.2 mm 4 m/s 756 mmHg 84%
    23:00 +12°C° 0 mm 4 m/s 756 mmHg 85%

    24 Junho, Segunda-feira

    Tempo Temperatura Precipitação Vento Pressão Humidade
    00:00 +12°C° 0 mm 3 m/s 757 mmHg 86%
    01:00 +11°C° 0 mm 3 m/s 757 mmHg 87%
    02:00 +11°C° 0 mm 3 m/s 757 mmHg 87%
    03:00 +10°C° 0 mm 3 m/s 757 mmHg 87%
    04:00 +10°C° 0 mm 3 m/s 758 mmHg 88%
    05:00 +12°C° 0 mm 4 m/s 758 mmHg 83%
    06:00 +13°C° 0 mm 4 m/s 758 mmHg 79%
    07:00 +15°C° 0 mm 4 m/s 759 mmHg 75%
    08:00 +17°C° 0 mm 4 m/s 759 mmHg 69%
    09:00 +19°C° 0 mm 4 m/s 759 mmHg 63%
    10:00 +21°C° 0 mm 3 m/s 759 mmHg 57%
    11:00 +21°C° 0 mm 3 m/s 759 mmHg 54%
    12:00 +22°C° 0 mm 3 m/s 759 mmHg 52%
    13:00 +24°C° 0 mm 3 m/s 759 mmHg 49%
    14:00 +24°C° 0 mm 3 m/s 759 mmHg 50%
    15:00 +24°C° 0 mm 3 m/s 759 mmHg 51%
    16:00 +24°C° 0 mm 3 m/s 759 mmHg 53%
    17:00 +22°C° 0 mm 3 m/s 760 mmHg 59%
    18:00 +21°C° 0 mm 3 m/s 760 mmHg 65%
    19:00 +19°C° 0 mm 2 m/s 760 mmHg 71%
    20:00 +18°C° 0 mm 2 m/s 760 mmHg 73%
    21:00 +16°C° 0 mm 2 m/s 761 mmHg 75%
    22:00 +15°C° 0 mm 2 m/s 761 mmHg 77%
    23:00 +14°C° 0 mm 2 m/s 761 mmHg 78%
    Mostrar mais